User: anonymous   Login
Location: Skalnate Pleso
(49.1889°N, 20.2450°E)
Time: 16:39:24
(UTC+01:00)
Language:

Cosmos 2360 Rocket - Orbit

View from above orbital plane
View from above orbital plane
View from above satellite
View from above satellite

Ground track
Ground track

The orbit data is extracted from the following two-line orbital elements,

1 25407U 98045B   20020.96914509  .00000083  00000-0  66644-4 0  9992
2 25407  71.0100 209.6544 0008942 216.1496 143.9024 14.15798326110338
Epoch (UTC): 20 January 2020 23:15:34
Eccentricity: 0.0008942
inclination: 71.0100°
perigee height: 833 km
apogee height: 846 km
right ascension of ascending node: 209.6544°
argument of perigee: 216.1496°
revolutions per day: 14.15798326
mean anomaly at epoch: 143.9024°
orbit number at epoch: 11033

The dashed part of the orbit path shows where the satellite is in the earth's shadow,  

DLR